This is the latest recevied weather packets stored in our database for station/object IQ5KG. If no packets are shown the sender has not sent any weather packets the latest 1 day(s).
| Time | Temp. | Humidity | Pressure | Rain* | Wind** | Luminosity | Snow |
|---|---|---|---|---|---|---|---|
| 1777999700 | 18.33° C | 86% | 1013 hPa | 0 mm | 3.58 m/s, 246° | - | - |
| 1777998802 | 18.33° C | 88% | 1013 hPa | 0 mm | 3.13 m/s, 269° | - | - |
| 1777997901 | 17.22° C | 92% | 1012.7 hPa | 0 mm | 3.13 m/s, 262° | - | - |
| 1777997001 | 17.22° C | 95% | 1013.2 hPa | 0 mm | 1.34 m/s, 268° | - | - |
| 1777996101 | 17.22° C | 97% | 1013.1 hPa | 0 mm | 3.58 m/s, 255° | - | - |
| 1777995202 | 17.22° C | 98% | 1013.2 hPa | 0 mm | 3.13 m/s, 272° | - | - |
| 1777994301 | 17.22° C | 99% | 1012.8 hPa | 0 mm | 1.34 m/s, 259° | - | - |
| 1777993402 | 17.22° C | 99% | 1012.9 hPa | 0 mm | 3.13 m/s, 257° | - | - |
| 1777992501 | 18.33° C | 99% | 1013.2 hPa | 0 mm | 2.24 m/s, 244° | - | - |
| 1777991601 | 17.22° C | 99% | 1013.2 hPa | 0 mm | 3.58 m/s, 246° | - | - |
| 1777990701 | 17.78° C | 99% | 1013.1 hPa | 0 mm | 4.02 m/s, 238° | - | - |
| 1777989802 | 18.33° C | 99% | 1013 hPa | 3.3 mm | 3.58 m/s, 269° | - | - |
| 1777988901 | 17.22° C | 99% | 1013.2 hPa | 4.32 mm | 2.24 m/s, 238° | - | - |
| 1777988001 | 16.11° C | 99% | 1013.5 hPa | 4.57 mm | 0.45 m/s, 245° | - | - |
| 1777987101 | 16.11° C | 99% | 1013.2 hPa | 4.57 mm | 2.24 m/s, 264° | - | - |
| 1777986201 | 16.11° C | 99% | 1013.8 hPa | 4.32 mm | 1.34 m/s, 279° | - | - |
| 1777985301 | 16.11° C | 99% | 1013.8 hPa | 4.83 mm | 0.89 m/s, 224° | - | - |
| 1777984401 | 16.11° C | 99% | 1013.7 hPa | 14.22 mm | 3.58 m/s, 314° | - | - |
| 1777983501 | 15.56° C | 99% | 1013.7 hPa | 17.53 mm | 2.24 m/s, 298° | - | - |
| 1777982600 | 15.56° C | 99% | 1013.8 hPa | 17.78 mm | 0.45 m/s, 213° | - | - |
| 1777981701 | 15.56° C | 99% | 1013.7 hPa | 19.81 mm | 0.45 m/s, 241° | - | - |
| 1777980800 | 14.44° C | 99% | 1013.9 hPa | 19.56 mm | 0.89 m/s, 37° | - | - |
| 1777979901 | 14.44° C | 99% | 1014 hPa | 19.81 mm | 2.68 m/s, 52° | - | - |
| 1777979001 | 14.44° C | 99% | 1013.8 hPa | 21.84 mm | 2.68 m/s, 86° | - | - |
| 1777978101 | 14.44° C | 99% | 1013.7 hPa | 26.42 mm | 1.34 m/s, 16° | - | - |
* Rain latest hour (hover to see other rain measurements)
** Current wind speed in m/s (hover to see current wind gust speed)